Waarnemingen

Advertentie
Mijn weer
Semmerzake, België (6428): temperatuur & dauwpunt: 15.08.2019 18:00:00 - 21.08.2019 18:00:00 (CEST)Semmerzake, België (6428): windsnelheid & windstoten: 15.08.2019 18:00:00 - 21.08.2019 18:00:00 (CEST)Semmerzake, België (6428): windrichting: 15.08.2019 18:00:00 - 21.08.2019 18:00:00 (CEST)Semmerzake, België (6428): luchtdruk: 15.08.2019 18:00:00 - 21.08.2019 18:00:00 (CEST)Semmerzake, België (6428): zicht: 15.08.2019 18:00:00 - 21.08.2019 18:00:00 (CEST)
Datum & Tijd tt [°C] td [°C] ff [km/u] ff [kn] fx [km/u] fx [kn] dd ppp [hPa] vv [km]
21.08.2019 18:00:00 21,8 8,7 7 4 11 6 ONO 1026,7 20
21.08.2019 17:00:00 21,8 8,4 4 2 - - N 1027,0 19
21.08.2019 16:00:00 21,6 7,8 4 2 14 8 N 1027,5 19
21.08.2019 15:00:00 21,8 8,4 4 2 14 8 N 1027,9 20
21.08.2019 14:00:00 20,2 6,6 4 2 - - N 1028,2 19
21.08.2019 13:00:00 20,2 9,5 4 2 14 8 N 1028,7 15
21.08.2019 12:00:00 19,0 11,2 7 4 18 10 Z 1029,2 20
21.08.2019 11:00:00 17,6 12,1 7 4 - - Z 1029,2 14
21.08.2019 10:00:00 15,7 12,6 4 2 11 6 N 1029,4 15
21.08.2019 09:00:00 14,0 11,8 4 2 7 4 N 1029,2 13
21.08.2019 08:00:00 11,6 10,6 4 2 - - N 1028,7 13
21.08.2019 07:00:00 10,4 9,6 7 4 11 6 Z 1028,5 16
21.08.2019 06:00:00 10,6 9,5 7 4 11 6 Z 1028,0 18
21.08.2019 05:00:00 10,8 9,5 7 4 - - Z 1028,0 16
21.08.2019 04:00:00 11,3 9,4 7 4 11 6 Z 1028,0 18
21.08.2019 03:00:00 12,2 9,3 7 4 11 6 ZZW 1027,9 19
21.08.2019 02:00:00 11,8 9,2 7 4 - - Z 1027,9 20
21.08.2019 01:00:00 12,6 9,0 7 4 7 4 ZZW 1027,9 20
21.08.2019 00:00:00 13,5 9,3 7 4 7 4 - 1027,5 20
20.08.2019 23:00:00 13,1 9,7 4 2 - - N 1027,2 20
20.08.2019 22:00:00 14,5 9,8 4 2 7 4 N 1026,7 20
20.08.2019 21:00:00 16,4 10,0 4 2 18 10 N 1026,2 20
20.08.2019 20:00:00 18,6 9,3 11 6 - - NW 1025,5 20
20.08.2019 19:00:00 19,3 8,8 11 6 22 12 WNW 1024,7 20
20.08.2019 18:00:00 20,2 10,4 11 6 22 12 NW 1024,5 20
20.08.2019 17:00:00 19,6 10,0 11 6 - - WNW 1024,2 20
20.08.2019 16:00:00 19,8 9,4 11 6 22 12 WNW 1023,8 17
20.08.2019 15:00:00 20,7 7,7 11 6 25 14 W 1023,5 20
20.08.2019 14:00:00 20,0 9,3 11 6 - - W 1023,6 18
20.08.2019 13:00:00 18,8 9,7 14 8 25 14 W 1023,2 18
20.08.2019 12:00:00 18,3 11,7 14 8 25 14 WZW 1023,1 20
20.08.2019 11:00:00 17,7 12,8 14 8 - - ZW 1023,1 18
20.08.2019 10:00:00 15,9 12,8 14 8 22 12 ZW 1023,1 19
20.08.2019 09:00:00 14,3 12,1 11 6 18 10 ZZW 1022,5 15
20.08.2019 08:00:00 12,8 11,5 7 4 - - ZZW 1022,2 14
20.08.2019 07:00:00 12,1 10,9 7 4 14 8 ZZW 1021,5 15
20.08.2019 06:00:00 12,0 10,8 7 4 14 8 ZZW 1021,0 16
20.08.2019 05:00:00 12,1 10,9 7 4 - - ZW 1021,1 16
20.08.2019 04:00:00 12,3 10,9 11 6 14 8 ZZW 1021,0 15
20.08.2019 03:00:00 12,5 10,9 7 4 18 10 ZZW 1020,8 15
20.08.2019 02:00:00 13,1 10,7 11 6 - - ZZW 1020,7 17
20.08.2019 01:00:00 13,5 10,3 11 6 18 10 ZZW 1020,6 20
20.08.2019 00:00:00 14,1 9,9 11 6 18 10 ZZW 1020,2 20
19.08.2019 23:00:00 14,9 9,4 11 6 - - ZW 1020,0 19
19.08.2019 22:00:00 15,8 9,2 11 6 22 12 ZW 1019,7 20
19.08.2019 21:00:00 17,0 9,3 11 6 29 16 WZW 1019,1 20
19.08.2019 20:00:00 18,8 8,6 18 10 - - WZW 1018,5 20
19.08.2019 19:00:00 20,0 8,9 22 12 43 23 WZW 1018,1 20
19.08.2019 18:00:00 20,1 8,8 25 14 40 21 WZW 1017,7 20
19.08.2019 17:00:00 21,0 10,2 22 12 - - ZW 1017,6 20
19.08.2019 16:00:00 20,1 9,3 22 12 47 25 WZW 1017,6 20
19.08.2019 15:00:00 20,1 11,0 29 16 47 25 WZW 1017,3 19
19.08.2019 14:00:00 20,3 11,7 22 12 - - WZW 1016,7 20
19.08.2019 13:00:00 19,0 11,0 18 10 32 18 WZW 1016,7 20
19.08.2019 12:00:00 18,5 11,9 18 10 32 18 ZW 1016,2 20
19.08.2019 11:00:00 - - - - - - - - -
19.08.2019 10:00:00 - - - - - - - - -
19.08.2019 09:00:00 - - - - - - - - -
19.08.2019 08:00:00 - - - - - - - - -
19.08.2019 07:00:00 - - - - - - - - -
19.08.2019 06:00:00 - - - - - - - - -
19.08.2019 05:00:00 - - - - - - - - -
19.08.2019 04:00:00 - - - - - - - - -
19.08.2019 03:00:00 - - - - - - - - -
19.08.2019 02:00:00 - - - - - - - - -
19.08.2019 01:00:00 - - - - - - - - -
19.08.2019 00:00:00 - - - - - - - - -
18.08.2019 23:00:00 - - - - - - - - -
18.08.2019 22:00:00 - - - - - - - - -
18.08.2019 21:00:00 - - - - - - - - -
18.08.2019 20:00:00 - - - - - - - - -
18.08.2019 19:00:00 - - - - - - - - -
18.08.2019 18:00:00 - - - - - - - - -
18.08.2019 17:00:00 - - - - - - - - -
18.08.2019 16:00:00 - - - - - - - - -
18.08.2019 15:00:00 - - - - - - - - -
18.08.2019 14:00:00 - - - - - - - - -
18.08.2019 13:00:00 - - - - - - - - -
18.08.2019 12:00:00 - - - - - - - - -
18.08.2019 11:00:00 - - - - - - - - -
18.08.2019 10:00:00 - - - - - - - - -
18.08.2019 09:00:00 - - - - - - - - -
18.08.2019 08:00:00 - - - - - - - - -
18.08.2019 07:00:00 - - - - - - - - -
18.08.2019 06:00:00 - - - - - - - - -
18.08.2019 05:00:00 - - - - - - - - -
18.08.2019 04:00:00 - - - - - - - - -
18.08.2019 03:00:00 - - - - - - - - -
18.08.2019 02:00:00 - - - - - - - - -
18.08.2019 01:00:00 - - - - - - - - -
18.08.2019 00:00:00 - - - - - - - - -
17.08.2019 23:00:00 - - - - - - - - -
17.08.2019 22:00:00 - - - - - - - - -
17.08.2019 21:00:00 - - - - - - - - -
17.08.2019 20:00:00 - - - - - - - - -
17.08.2019 19:00:00 - - - - - - - - -
17.08.2019 18:00:00 - - - - - - - - -
17.08.2019 17:00:00 - - - - - - - - -
17.08.2019 16:00:00 - - - - - - - - -
17.08.2019 15:00:00 - - - - - - - - -
17.08.2019 14:00:00 - - - - - - - - -
17.08.2019 13:00:00 - - - - - - - - -
17.08.2019 12:00:00 - - - - - - - - -
17.08.2019 11:00:00 - - - - - - - - -
17.08.2019 10:00:00 - - - - - - - - -
17.08.2019 09:00:00 - - - - - - - - -
17.08.2019 08:00:00 - - - - - - - - -
17.08.2019 07:00:00 - - - - - - - - -
17.08.2019 06:00:00 - - - - - - - - -
17.08.2019 05:00:00 - - - - - - - - -
17.08.2019 04:00:00 - - - - - - - - -
17.08.2019 03:00:00 - - - - - - - - -
17.08.2019 02:00:00 - - - - - - - - -
17.08.2019 01:00:00 - - - - - - - - -
17.08.2019 00:00:00 - - - - - - - - -
16.08.2019 23:00:00 - - - - - - - - -
16.08.2019 22:00:00 - - - - - - - - -
16.08.2019 21:00:00 - - - - - - - - -
16.08.2019 20:00:00 - - - - - - - - -
16.08.2019 19:00:00 - - - - - - - - -
16.08.2019 18:00:00 - - - - - - - - -
16.08.2019 17:00:00 - - - - - - - - -
16.08.2019 16:00:00 - - - - - - - - -
16.08.2019 15:00:00 - - - - - - - - -
16.08.2019 14:00:00 - - - - - - - - -
16.08.2019 13:00:00 - - - - - - - - -
16.08.2019 12:00:00 - - - - - - - - -
16.08.2019 11:00:00 - - - - - - - - -
16.08.2019 10:00:00 - - - - - - - - -
16.08.2019 09:00:00 - - - - - - - - -
16.08.2019 08:00:00 - - - - - - - - -
16.08.2019 07:00:00 - - - - - - - - -
16.08.2019 06:00:00 - - - - - - - - -
16.08.2019 05:00:00 - - - - - - - - -
16.08.2019 04:00:00 - - - - - - - - -
16.08.2019 03:00:00 - - - - - - - - -
16.08.2019 02:00:00 - - - - - - - - -
16.08.2019 01:00:00 - - - - - - - - -
16.08.2019 00:00:00 - - - - - - - - -
15.08.2019 23:00:00 - - - - - - - - -
15.08.2019 22:00:00 - - - - - - - - -
15.08.2019 21:00:00 - - - - - - - - -
15.08.2019 20:00:00 - - - - - - - - -
15.08.2019 19:00:00 - - - - - - - - -
15.08.2019 18:00:00 - - - - - - - - -

tt = temperatuur
td = dauwpunt
ff = windsnelheid
fx = windstoten
dd = windrichting
ppp = luchtdruk
vv = zicht

Weerstations in de omgeving